Regional Weather Roundup
Issued by NWS

Home | Current Version | Previous Version | Graphics & Text | Print | Product List | Glossary Off
Versions: 1 2 3 4 5 6 7 8 9 10 11 12 13 14 15 16 17 18 19 20 21 22 23 24 25 26 27 28 29 30 31 32 33 34 35 36 37 38 39 40 41 42 43 44 45 46 47 48 49 50

000
ASUS43 KTOP 191208
RWRKS

WEATHER ROUNDUP FOR KANSAS
NATIONAL WEATHER SERVICE GOODLAND KS
700 AM CDT THU APR 19 2018

NOTE:  "FAIR" INDICATES FEW OR NO CLOUDS BELOW 12,000 FEET WITH NO
SIGNIFICANT WEATHER AND/OR OBSTRUCTIONS TO VISIBILITY.

KSZ001>006-013>018-027>032-041>047-191300-
NORTHWEST KANSAS

CITY           SKY/WX    TMP DP  RH WIND       PRES   REMARKS
GOODLAND       CLEAR     33  26  75 S8        30.35R
6HR MIN TEMP:  24; 6HR MAX TEMP:  33;

HAYS           CLOUDY    28  24  85 NW5       30.41R
HILL CITY      CLOUDY    26  24  92 NW3       30.42R
6HR MIN TEMP:  24; 6HR MAX TEMP:  31;

RUSSELL        CLOUDY    29  27  92 NW7       30.41R
6HR MIN TEMP:  26; 6HR MAX TEMP:  39;

$$

KSZ061>065-074>080-084>089-191300-
SOUTHWEST KANSAS

CITY           SKY/WX    TMP DP  RH WIND       PRES   REMARKS
DODGE CITY     CLOUDY    31  24  75 NW3       30.37R
6HR MIN TEMP:  29; 6HR MAX TEMP:  40;

ELKHART        CLEAR     32  24  71 SE10      30.36R WCI  24
GARDEN CITY    CLOUDY    29  23  78 W7        30.37R
6HR MIN TEMP:  27; 6HR MAX TEMP:  37;

GREAT BEND     CLEAR     27  23  85 N6        30.41R
LIBERAL        CLOUDY    33  23  66 CALM      30.39R
PRATT          CLEAR     29  24  81 N5        30.39R
6HR MIN TEMP:  28; 6HR MAX TEMP:  38;

$$

KSZ066>073-081>083-090>101-191300-
SOUTHEAST KANSAS

CITY           SKY/WX    TMP DP  RH WIND       PRES   REMARKS
CHANUTE        CLOUDY    35  28  75 NW8       30.37R
6HR MIN TEMP:  30; 6HR MAX TEMP:  39;

COFFEYVILLE    CLOUDY    34  28  79 NW5       30.37R
6HR MIN TEMP:  33; 6HR MAX TEMP:  43;

HUTCHINSON     CLOUDY    27  24  89 N3        30.40R
6HR MIN TEMP:  27; 6HR MAX TEMP:  38;

MEDICINE LODGE   N/A     31  27  85 N3        30.39R
NEWTON         CLOUDY    29  25  85 N10       30.39R WCI  20
PARSONS        CLOUDY    32  28  85 N5        30.38R
6HR MIN TEMP:  29; 6HR MAX TEMP:  41;

WICHITA INTL   CLEAR     35  28  75 NW10      30.39R WCI  27
6HR MIN TEMP:  31; 6HR MAX TEMP:  43;

WICHITA JABRA  CLEAR     33  28  81 NW9       30.39R
6HR MIN TEMP:  33; 6HR MAX TEMP:  36;

WICHITA MCCONL CLEAR     36  27  70 NW7       30.38R
WINFIELD       CLOUDY    30  27  88 N5        30.40R
6HR MIN TEMP:  28; 6HR MAX TEMP:  38;

$$

KSZ007>012-019>026-033>040-048>060-102>105-191300-
NORTHEAST KANSAS

CITY           SKY/WX    TMP DP  RH WIND       PRES   REMARKS
CONCORDIA      CLEAR     28  25  88 W8        30.43R
6HR MIN TEMP:  28; 6HR MAX TEMP:  33;

EMPORIA        PTCLDY    30  26  85 NW8       30.38R
6HR MIN TEMP:  29; 6HR MAX TEMP:  35;

LAWRENCE       PTCLDY    32  27  81 N6        30.39R
6HR MIN TEMP:  32; 6HR MAX TEMP:  40;

MANHATTAN      CLEAR     32  27  81 W3        30.41R
6HR MIN TEMP:  28; 6HR MAX TEMP:  36;

MARYSVILLE     CLEAR     28  27  93 N6        30.40R
OLATHE IND     CLEAR     32  28  85 N10       30.37R WCI  24
6HR MIN TEMP:  31; 6HR MAX TEMP:  39;

OLATHE EXE     CLEAR     33  28  81 N6        30.36R
6HR MIN TEMP:  33; 6HR MAX TEMP:  37;

SALINA         CLOUDY    30  26  85 NW7       30.43R
6HR MIN TEMP:  30; 6HR MAX TEMP:  36;

TOPEKA BILLARD PTCLDY    33  27  78 N7        30.39R
6HR MIN TEMP:  33; 6HR MAX TEMP:  38;

TOPEKA FORBES  PTCLDY    36  28  73 N9        30.38R
6HR MIN TEMP:  32; 6HR MAX TEMP:  38;

$$



USA.gov is the U.S. government's official web portal to all federal, state and local government web resources and services.